GW2905 Weather Reports


Display with metric or nautical units.
time (UTC)temp
F
wind
direction
speed
MPH
gust
MPH
rain 1hr
in
rain 24hr
in
rain mn
in
humidity
%
barometer
mb
20260905204611 63 169 0.0 3.0 0.00 0.00 0.00 69 1016.1
20260905203101 64 341 0.0 5.0 0.00 0.00 0.00 67 1016.1
20260905201558 65 298 1.0 3.0 0.00 0.00 0.00 64 1016.1
20260905200107 64 142 0.0 3.0 0.00 0.00 0.00 70 1016.2
20260905194558 64 0 0.0 5.0 0.00 0.00 0.00 65 1016.2
20260905193110 66 0 1.0 5.0 0.00 0.00 0.00 67 1016.3
20260905191606 66 203 0.0 3.0 0.00 0.00 0.00 70 1016.3
20260905184612 61 0 1.0 4.0 0.00 0.00 0.00 75 1016.8
20260905183107 60 0 0.0 3.0 0.00 0.00 0.00 76 1016.8
20260905181604 60 0 0.0 2.0 0.00 0.00 0.00 76 1016.8
20260905174559 62 132 1.0 3.0 0.00 0.00 0.00 75 1016.9
20260905173103 61 0 0.0 2.0 0.00 0.00 0.00 78 1016.8
20260905171604 59 133 1.0 3.0 0.00 0.00 0.00 79 1016.8
20260905170117 58 164 0.0 2.0 0.00 0.00 0.00 85 1016.8
20260905164559 57 0 0.0 3.0 0.00 0.00 0.00 86 1016.8
20260905163057 56 0 0.0 3.0 0.00 0.00 0.00 90 1016.7
20260905161558 55 16 1.0 3.0 0.00 0.00 0.00 92 1016.8
20260905160101 55 0 0.0 2.0 0.00 0.00 0.00 94 1016.8
20260905154602 54 0 0.0 2.0 0.00 0.00 0.00 95 1016.9
20260905153056 53 248 0.0 1.0 0.00 0.00 0.00 95 1016.8
20260905151602 52 0 0.0 1.0 0.00 0.00 0.00 95 1016.8
20260905144559 52 0 0.0 1.0 0.00 0.00 0.00 94 1016.7
20260905143108 53 278 0.0 2.0 0.00 0.00 0.00 94 1016.6
20260905141559 53 0 0.0 1.0 0.00 0.00 0.00 93 1016.6
20260905140059 53 0 0.0 0.0 0.00 0.00 0.00 93 1016.4
20260905134600 53 0 0.0 0.0 0.00 0.00 0.00 93 1016.4
20260905133057 53 0 0.0 0.0 0.00 0.00 0.00 93 1016.4
20260905131559 54 0 0.0 1.0 0.00 0.00 0.00 92 1016.4
20260905124559 54 0 0.0 0.0 0.00 0.05 0.00 90 1016.2
20260905123104 54 0 0.0 1.0 0.00 0.05 0.00 89 1016.0
20260905121602 54 0 0.0 1.0 0.00 0.05 0.00 90 1016.0
20260905120106 54 0 0.0 1.0 0.00 0.05 0.00 91 1016.0
20260905114558 53 350 0.0 1.0 0.00 0.06 0.00 93 1016.0
20260905113059 53 0 0.0 0.0 0.00 0.06 0.00 93 1015.9
20260905111637 53 0 0.0 1.0 0.00 0.06 0.00 94 1015.9
20260905110059 53 0 0.0 0.0 0.00 0.06 0.00 94 1016.0
20260905104556 53 0 0.0 0.0 0.00 0.06 0.00 94 1016.0
20260905103100 53 0 0.0 0.0 0.00 0.06 0.00 94 1016.1
20260905101603 54 0 0.0 0.0 0.00 0.06 0.00 93 1016.1
20260905100222 54 0 0.0 0.0 0.00 0.06 0.00 93 1016.1
20260905094604 54 0 0.0 0.0 0.00 0.06 0.00 93 1016.1
20260905093103 54 0 0.0 0.0 0.00 0.06 0.00 93 1016.2
20260905091610 54 0 0.0 0.0 0.00 0.06 0.00 93 1016.1
20260905084604 53 0 0.0 0.0 0.00 0.06 0.00 93 1016.0
20260905083059 54 0 0.0 1.0 0.00 0.06 0.00 92 1015.9
20260905081618 54 0 0.0 1.0 0.00 0.06 0.00 91 1015.9
20260905080119 54 0 0.0 1.0 0.00 0.06 0.00 90 1015.8
20260905074604 54 0 0.0 0.0 0.00 0.06 0.00 90 1015.7
20260905073059 55 0 0.0 0.0 0.00 0.06 0.00 90 1015.6
20260905071603 54 0 0.0 0.0 0.00 0.06 0.00 90 1015.7
20260905070108 55 0 0.0 0.0 0.00 0.06 0.00 90 1015.5
20260905064603 54 0 0.0 0.0 0.00 0.06 0.06 91 1015.4
20260905063102 54 0 0.0 0.0 0.00 0.06 0.06 92 1015.4
20260905061611 53 0 0.0 1.0 0.00 0.06 0.06 91 1015.2
20260905060100 54 0 0.0 0.0 0.00 0.06 0.06 90 1015.3
20260905054556 54 0 0.0 0.0 0.00 0.06 0.06 90 1015.3
20260905053103 54 0 0.0 0.0 0.00 0.06 0.06 91 1015.3
20260905051557 54 0 0.0 0.0 0.00 0.06 0.06 91 1015.3
20260905050107 54 0 0.0 0.0 0.00 0.06 0.06 92 1015.3
20260905044606 55 0 0.0 0.0 0.00 0.06 0.06 92 1015.3
20260905043100 55 0 0.0 0.0 0.00 0.06 0.06 92 1015.2
20260905041602 55 0 0.0 1.0 0.00 0.06 0.06 92 1015.2
20260905040104 56 0 0.0 2.0 0.00 0.06 0.06 91 1014.9
20260905034607 55 0 0.0 2.0 0.00 0.06 0.06 91 1014.8
20260905033103 56 0 0.0 1.0 0.00 0.06 0.06 90 1014.6
20260905031559 56 0 0.0 2.0 0.00 0.06 0.06 88 1014.6
20260905030121 56 0 0.0 1.0 0.00 0.06 0.06 86 1014.2
20260905024559 57 0 0.0 1.0 0.00 0.06 0.06 83 1014.1
20260905023100 57 281 0.0 1.0 0.00 0.06 0.06 81 1014.2
20260905021606 58 0 0.0 2.0 0.00 0.06 0.06 81 1014.2
20260905020108 59 0 0.0 0.0 0.00 0.06 0.06 81 1014.0
20260905014604 59 0 0.0 2.0 0.00 0.06 0.06 80 1013.9
20260905013104 59 0 0.0 3.0 0.00 0.06 0.06 79 1013.8
20260905011603 60 159 0.0 1.0 0.00 0.06 0.06 76 1013.6
20260905010114 60 0 0.0 2.0 0.00 0.06 0.06 76 1013.5
20260905004614 60 0 0.0 1.0 0.00 0.06 0.06 76 1013.5
20260905003057 60 0 0.0 2.0 0.00 0.06 0.06 71 1013.4
20260905001603 60 0 0.0 2.0 0.00 0.06 0.06 70 1013.5
20260904234558 61 0 0.0 1.0 0.00 0.07 0.06 70 1013.6
20260904233059 61 0 0.0 2.0 0.00 0.07 0.06 72 1013.5
20260904231556 61 179 1.0 9.0 0.00 0.07 0.06 65 1013.5
20260904230100 62 99 2.0 8.0 0.00 0.07 0.06 66 1013.2
20260904224601 62 98 0.0 3.0 0.00 0.07 0.06 69 1013.1
20260904223101 63 116 0.0 8.0 0.00 0.07 0.06 67 1013.1
20260904221613 62 86 2.0 8.0 0.00 0.07 0.06 61 1013.0
20260904220107 63 0 1.0 4.0 0.00 0.07 0.06 63 1012.9
20260904214611 64 235 1.0 6.0 0.00 0.08 0.06 64 1012.8
20260904213058 63 159 1.0 7.0 0.00 0.08 0.06 73 1012.9
20260904211616 62 178 2.0 8.0 0.00 0.08 0.06 68 1012.6
20260904210059 64 115 1.0 4.0 0.00 0.08 0.06 71 1012.3